Location: Roland
(31.1349°N, 85.4372°W)
Time: 22:18:51
(UTC+00:00)

Tiros 1 - Pass Details

Date: 23 April 2021
Orbit: 630 x 664 km, 48.4° (Epoch: 05 May)

Event Time Altitude Azimuth Distance (km) Brightness Sun altitude
Rises 12:25:53 0° 223° (SW) 2,950 10.1 16.2°
Reaches altitude 10° 12:28:14 10° 221° (SW) 2,037 9.4 16.7°
Maximum altitude 12:32:54 73° 138° (SE) 672 7.7 17.7°
Drops below altitude 10° 12:37:33 10° 53° (NE) 2,024 10.8 18.7°
Sets 12:39:53 0° 52° (NE) 2,929 11.4 19.2°
